Regional Weather Roundup
Issued by NWS

Home | Current Version | Previous Version | Text Only | Print | Product List | Glossary On
Versions: 1 2 3 4 5 6 7 8 9 10 11 12 13 14 15 16 17 18 19 20 21 22 23 24 25 26 27 28 29 30 31 32 33 34 35 36 37 38 39 40 41 42 43 44 45 46 47 48 49 50
598
ASUS43 KOAX 230902
RWRNE

WEATHER ROUNDUP FOR NEBRASKA
NATIONAL WEATHER SERVICE OMAHA NE
400 AM CDT SAT JUL 23 2016

NOTES: SATELLITE DATA IS BEING USED TO AUGMENT CLOUD COVER ABOVE
       12000 FEET.
       "FAIR" INDICATES FEW OR NO CLOUDS BELOW 12,000 FEET WITH NO
       SIGNIFICANT WEATHER AND/OR OBSTRUCTIONS TO VISIBILITY.

  * THESE STATIONS DO NOT REPORT WEATHER SUCH AS RAIN...SNOW OR FOG.

NEZ001>004-019>022-054>056-231000-
NEBRASKA PANHANDLE

CITY           SKY/WX    TMP DP  RH WIND       PRES   REMARKS
SCOTTSBLUFF    CLOUDY    64  60  87 E6        29.97F
ALLIANCE       CLOUDY    63  61  93 SW5       29.96F
CHADRON        MOCLDY    69  61  75 S9        29.90F
KIMBALL        CLOUDY    68  62  82 W9        30.05F
SIDNEY         CLOUDY    68  63  84 SW9       30.01F
$$

NEZ057>060-069>072-079>082-231000-
SOUTHWEST NEBRASKA

CITY           SKY/WX    TMP DP  RH WIND       PRES   REMARKS
NORTH PLATTE   CLOUDY    70  65  84 NE3       29.92S
IMPERIAL       CLOUDY    73  63  70 S18G28    29.90F
LEXINGTON      LGT RAIN  71  68  90 CALM      29.95F
MCCOOK         CLOUDY    72  66  81 E13       29.93F
OGALLALA       PTCLDY    71  63  77 CALM      29.92F
$$

NEZ005>010-023>029-035>040-094-231000-
NORTH CENTRAL NEBRASKA

CITY           SKY/WX    TMP DP  RH WIND       PRES   REMARKS
VALENTINE      CLOUDY    76  61  59 SW7       29.90F
AINSWORTH      CLOUDY    70  67  89 S5        29.90F
BROKEN BOW     LGT RAIN  69  68  96 SE7       29.90F
O`NEILL        CLOUDY    74  70  89 S16G22    29.91R
ORD            LGT RAIN  71  67  87 E7        29.92F
THEDFORD       LGT RAIN  76  63  63 S13       29.91F
$$

NEZ041-046>049-061>064-073>077-083>087-231000-
SOUTH CENTRAL NEBRASKA

CITY           SKY/WX    TMP DP  RH WIND       PRES   REMARKS
GRAND ISLAND   CLOUDY    73  70  90 NW14      29.95F
AURORA         CLOUDY    74  72  92 NW6       29.94R
HASTINGS       CLOUDY    75  67  76 NW14G24   29.97R
HEBRON         CLOUDY    80  69  70 S9        29.90R
HOLDREGE       CLOUDY    71  66  85 CALM      29.97F
KEARNEY *      CLOUDY    72  66  83 NW7       29.96F
YORK           CLOUDY    75  70  83 W7        29.93R
$$

NEZ011>018-030>034-042>045-231000-
NORTHEAST NEBRASKA

CITY           SKY/WX    TMP DP  RH WIND       PRES   REMARKS
NORFOLK        TSTM      78  71  79 W14       29.92R
ALBION         LGT RAIN  75  67  76 W13G21    29.94F
BLAIR          CLOUDY    82  74  75 S10       29.88F
FREMONT        CLOUDY    80  73  78 SE8       29.87F
TEKAMAH        MOCLDY    79  76  90 S7        29.86F
WAYNE          CLOUDY    79  77  94 SE5       29.86F
$$

NEZ050>053-065>068-078-088>093-231000-
SOUTHEAST NEBRASKA

CITY           SKY/WX    TMP DP  RH WIND       PRES   REMARKS
LINCOLN        PTCLDY    82  71  69 S13       29.88F
OMAHA EPPLEY   CLOUDY    83  74  74 SE10      29.88F
BEATRICE       CLOUDY    82  70  67 SE8       29.90S
FALLS CITY     CLOUDY    82  72  71 VRB5      29.92R THUNDER
NEBRASKA CITY  CLOUDY    80  73  81 S10       29.91F
PLATTSMOUTH    RAIN      80  75  86 S9G17     29.89F
$$

NEZ044-045-051>053-067-231000-
OMAHA AREA

CITY           SKY/WX    TMP DP  RH WIND       PRES   REMARKS
OMAHA EPPLEY   CLOUDY    83  74  74 SE10      29.88F
BLAIR          CLOUDY    82  74  75 S10       29.88F
FREMONT        CLOUDY    80  73  78 SE8       29.87F
MILLARD        PTCLDY    81  75  80 SE6       29.88F
OFFUTT AFB     CLOUDY    81  75  81 SE9       29.87F
PLATTSMOUTH    RAIN      80  75  86 S9G17     29.89F
WAHOO          PTSUNNY   77  74  90 SE6       29.87F
$$




USA.gov is the U.S. government's official web portal to all federal, state and local government web resources and services.